Time,TemperatureF,DewpointF,PressureIn,WindDirection,WindDirectionDegrees,WindSpeedMPH,WindSpeedGustMPH,Humidity,HourlyPrecipIn,Conditions,Clouds,dailyrainin,SolarRadiationWatts/m^2,SoftwareType,DateUTC
2013-06-25 00:01:00,55.9,53.9,29.66,South,182,0.0,0.0,93,0.00,,,0.00,0,WeatherCatV1.14B232,2013-06-25 07:01:00,
2013-06-25 00:06:00,55.7,53.7,29.66,South,182,0.0,0.0,93,0.00,,,0.00,0,WeatherCatV1.14B232,2013-06-25 07:06:00,
2013-06-25 00:11:00,55.7,53.7,29.66,South,182,0.0,0.0,93,0.00,,,0.00,0,WeatherCatV1.14B232,2013-06-25 07:11:00,
2013-06-25 00:16:00,55.7,53.7,29.66,South,182,0.0,0.0,93,0.00,,,0.00,0,WeatherCatV1.14B232,2013-06-25 07:16:00,
2013-06-25 00:21:00,55.6,53.6,29.66,South,182,0.0,0.0,93,0.00,,,0.00,0,WeatherCatV1.14B232,2013-06-25 07:21:00,
2013-06-25 00:26:00,55.6,53.6,29.66,South,182,0.0,0.0,93,0.00,,,0.00,0,WeatherCatV1.14B232,2013-06-25 07:26:00,
2013-06-25 00:31:00,55.6,53.6,29.66,South,182,0.0,0.0,93,0.00,,,0.00,0,WeatherCatV1.14B232,2013-06-25 07:31:00,
2013-06-25 00:36:00,55.4,53.7,29.66,South,182,0.0,0.0,94,0.00,,,0.00,0,WeatherCatV1.14B232,2013-06-25 07:36:00,
2013-06-25 00:41:00,55.4,53.7,29.66,South,182,0.0,0.0,94,0.00,,,0.00,0,WeatherCatV1.14B232,2013-06-25 07:41:00,
2013-06-25 00:46:00,55.4,53.7,29.65,South,182,0.0,0.0,94,0.00,,,0.00,0,WeatherCatV1.14B232,2013-06-25 07:46:00,
2013-06-25 00:51:00,55.3,53.6,29.65,South,182,0.0,0.0,94,0.00,,,0.00,0,WeatherCatV1.14B232,2013-06-25 07:51:00,
2013-06-25 00:56:00,55.3,53.6,29.65,South,182,0.0,0.0,94,0.00,,,0.00,0,WeatherCatV1.14B232,2013-06-25 07:56:00,
2013-06-25 01:01:00,55.3,53.6,29.65,South,182,0.0,0.0,94,0.00,,,0.00,0,WeatherCatV1.14B232,2013-06-25 08:01:00,
2013-06-25 01:06:00,55.1,53.4,29.65,South,182,0.0,0.0,94,0.00,,,0.00,0,WeatherCatV1.14B232,2013-06-25 08:06:00,
2013-06-25 01:11:00,55.1,53.4,29.65,South,182,0.0,0.0,94,0.00,,,0.00,0,WeatherCatV1.14B232,2013-06-25 08:11:00,
2013-06-25 01:16:00,55.0,53.3,29.65,South,182,0.0,0.0,94,0.00,,,0.00,0,WeatherCatV1.14B232,2013-06-25 08:16:00,
2013-06-25 01:21:00,54.8,53.1,29.65,South,182,0.0,0.0,94,0.00,,,0.00,0,WeatherCatV1.14B232,2013-06-25 08:21:00,
2013-06-25 01:26:00,54.8,53.1,29.65,South,182,0.0,0.0,94,0.00,,,0.00,0,WeatherCatV1.14B232,2013-06-25 08:26:00,
2013-06-25 01:31:00,54.7,53.0,29.65,South,182,0.0,0.0,94,0.00,,,0.00,0,WeatherCatV1.14B232,2013-06-25 08:31:00,
2013-06-25 01:36:00,54.5,52.8,29.65,South,182,0.0,0.0,94,0.00,,,0.00,0,WeatherCatV1.14B232,2013-06-25 08:36:00,
2013-06-25 01:41:00,54.4,52.7,29.65,South,182,0.0,0.0,94,0.00,,,0.00,0,WeatherCatV1.14B232,2013-06-25 08:41:00,
2013-06-25 01:46:00,54.4,52.7,29.65,South,182,0.0,0.0,94,0.00,,,0.00,0,WeatherCatV1.14B232,2013-06-25 08:46:00,
2013-06-25 01:51:00,54.2,52.5,29.65,South,182,0.0,0.0,94,0.00,,,0.00,0,WeatherCatV1.14B232,2013-06-25 08:51:00,
2013-06-25 01:56:00,54.2,52.5,29.65,South,182,0.0,0.0,94,0.00,,,0.00,0,WeatherCatV1.14B232,2013-06-25 08:56:00,
2013-06-25 02:01:00,54.1,52.4,29.65,South,182,0.0,0.0,94,0.00,,,0.00,0,WeatherCatV1.14B232,2013-06-25 09:01:00,
2013-06-25 02:06:00,54.1,52.4,29.65,South,182,0.0,0.0,94,0.00,,,0.00,0,WeatherCatV1.14B232,2013-06-25 09:06:00,
2013-06-25 02:11:00,53.9,52.2,29.65,South,182,0.0,0.0,94,0.00,,,0.00,0,WeatherCatV1.14B232,2013-06-25 09:11:00,
2013-06-25 02:16:00,53.9,52.2,29.64,South,182,0.0,0.0,94,0.00,,,0.00,0,WeatherCatV1.14B232,2013-06-25 09:16:00,
2013-06-25 02:21:00,53.8,52.1,29.64,South,182,0.0,0.0,94,0.00,,,0.00,0,WeatherCatV1.14B232,2013-06-25 09:21:00,
2013-06-25 02:26:00,53.8,52.1,29.64,South,182,0.0,0.0,94,0.00,,,0.00,0,WeatherCatV1.14B232,2013-06-25 09:26:00,
2013-06-25 02:31:00,53.8,52.1,29.64,South,182,0.0,0.0,94,0.00,,,0.00,0,WeatherCatV1.14B232,2013-06-25 09:31:00,
2013-06-25 02:36:00,53.8,52.4,29.64,South,182,0.0,0.0,95,0.00,,,0.00,0,WeatherCatV1.14B232,2013-06-25 09:36:00,
2013-06-25 02:41:00,53.8,52.4,29.64,South,182,0.0,0.0,95,0.00,,,0.00,0,WeatherCatV1.14B232,2013-06-25 09:41:00,
2013-06-25 02:46:00,53.8,52.4,29.64,South,182,0.0,0.0,95,0.00,,,0.00,0,WeatherCatV1.14B232,2013-06-25 09:46:00,
2013-06-25 02:51:00,53.8,52.4,29.64,South,182,0.0,0.0,95,0.00,,,0.00,0,WeatherCatV1.14B232,2013-06-25 09:51:00,
2013-06-25 02:56:00,53.8,52.4,29.64,South,182,0.0,0.0,95,0.00,,,0.00,0,WeatherCatV1.14B232,2013-06-25 09:56:00,
2013-06-25 03:01:00,53.9,52.5,29.64,South,182,0.0,0.0,95,0.00,,,0.00,0,WeatherCatV1.14B232,2013-06-25 10:01:00,
2013-06-25 03:06:00,53.9,52.5,29.64,South,182,0.0,0.0,95,0.00,,,0.00,0,WeatherCatV1.14B232,2013-06-25 10:06:00,
2013-06-25 03:11:00,53.9,52.5,29.64,South,182,0.0,0.0,95,0.00,,,0.00,0,WeatherCatV1.14B232,2013-06-25 10:11:00,
2013-06-25 03:16:00,53.9,52.5,29.64,South,182,0.0,0.0,95,0.00,,,0.00,0,WeatherCatV1.14B232,2013-06-25 10:16:00,
2013-06-25 03:21:00,54.1,52.7,29.64,South,182,0.0,0.0,95,0.00,,,0.00,0,WeatherCatV1.14B232,2013-06-25 10:21:00,
2013-06-25 03:26:00,54.1,52.7,29.64,South,182,0.0,0.0,95,0.00,,,0.00,0,WeatherCatV1.14B232,2013-06-25 10:26:00,
2013-06-25 03:31:00,54.1,52.7,29.64,South,182,0.0,0.0,95,0.00,,,0.00,0,WeatherCatV1.14B232,2013-06-25 10:31:00,
2013-06-25 03:36:00,54.1,52.7,29.64,South,182,0.0,0.0,95,0.00,,,0.00,0,WeatherCatV1.14B232,2013-06-25 10:36:00,
2013-06-25 03:41:00,54.1,52.7,29.64,SSE,167,0.0,1.0,95,0.00,,,0.00,0,WeatherCatV1.14B232,2013-06-25 10:41:00,
2013-06-25 03:46:00,54.1,53.0,29.65,SSE,150,0.0,0.0,96,0.00,,,0.00,0,WeatherCatV1.14B232,2013-06-25 10:46:00,
2013-06-25 03:51:00,54.1,53.0,29.65,SSE,150,0.0,0.0,96,0.00,,,0.00,0,WeatherCatV1.14B232,2013-06-25 10:51:00,
2013-06-25 03:56:00,54.1,53.0,29.65,SSE,150,0.0,0.0,96,0.00,,,0.00,0,WeatherCatV1.14B232,2013-06-25 10:56:00,
2013-06-25 04:01:00,54.1,53.0,29.65,SSE,150,0.0,0.0,96,0.00,,,0.00,0,WeatherCatV1.14B232,2013-06-25 11:01:00,
2013-06-25 04:06:00,54.1,53.0,29.65,SSE,150,0.0,0.0,96,0.00,,,0.01,0,WeatherCatV1.14B232,2013-06-25 11:06:00,
2013-06-25 04:11:00,54.1,53.0,29.65,SSE,150,0.0,0.0,96,0.00,,,0.01,0,WeatherCatV1.14B232,2013-06-25 11:11:00,
2013-06-25 04:16:00,54.1,53.0,29.66,SSE,150,0.0,0.0,96,0.07,,,0.02,0,WeatherCatV1.14B232,2013-06-25 11:16:00,
2013-06-25 04:21:00,54.1,53.0,29.66,SSE,150,0.0,0.0,96,0.07,,,0.02,0,WeatherCatV1.14B232,2013-06-25 11:21:00,
2013-06-25 04:26:00,54.1,53.0,29.66,SSE,150,0.0,0.0,96,0.06,,,0.03,0,WeatherCatV1.14B232,2013-06-25 11:26:00,
2013-06-25 04:31:00,54.1,53.0,29.66,SSE,150,0.0,0.0,96,0.06,,,0.03,0,WeatherCatV1.14B232,2013-06-25 11:31:00,
2013-06-25 04:36:00,54.1,53.0,29.66,SSE,150,0.0,0.0,96,0.04,,,0.03,0,WeatherCatV1.14B232,2013-06-25 11:36:00,
2013-06-25 04:41:00,54.1,53.0,29.66,SSE,150,0.0,0.0,96,0.00,,,0.03,0,WeatherCatV1.14B232,2013-06-25 11:41:00,
2013-06-25 04:46:00,54.1,53.0,29.67,SSE,150,0.0,0.0,96,0.00,,,0.04,0,WeatherCatV1.14B232,2013-06-25 11:46:00,
2013-06-25 04:51:00,54.1,53.0,29.67,SSE,150,0.0,0.0,96,0.09,,,0.05,0,WeatherCatV1.14B232,2013-06-25 11:51:00,
2013-06-25 04:56:00,54.1,53.0,29.67,SSE,150,0.0,0.0,96,0.09,,,0.05,0,WeatherCatV1.14B232,2013-06-25 11:56:00,
2013-06-25 05:01:00,54.1,53.0,29.67,SSE,150,0.0,0.0,96,0.05,,,0.05,0,WeatherCatV1.14B232,2013-06-25 12:01:00,
2013-06-25 05:06:00,54.1,53.0,29.67,SSE,150,0.0,0.0,96,0.04,,,0.06,0,WeatherCatV1.14B232,2013-06-25 12:06:00,
2013-06-25 05:11:00,54.2,53.1,29.67,SSE,150,0.0,1.0,96,0.23,,,0.07,0,WeatherCatV1.14B232,2013-06-25 12:11:00,
2013-06-25 05:16:00,54.2,53.1,29.67,SSE,150,0.0,0.0,96,0.08,,,0.08,0,WeatherCatV1.14B232,2013-06-25 12:16:00,
2013-06-25 05:21:00,54.2,53.1,29.67,SSE,150,0.0,0.0,96,0.18,,,0.09,0,WeatherCatV1.14B232,2013-06-25 12:21:00,
2013-06-25 05:26:00,54.2,53.1,29.67,SE,131,0.0,1.0,96,0.07,,,0.09,5,WeatherCatV1.14B232,2013-06-25 12:26:00,
2013-06-25 05:31:00,54.2,53.1,29.67,SE,131,0.0,0.0,96,0.05,,,0.10,12,WeatherCatV1.14B232,2013-06-25 12:31:00,
2013-06-25 05:36:00,54.2,53.1,29.67,SE,132,0.0,2.0,96,0.05,,,0.10,16,WeatherCatV1.14B232,2013-06-25 12:36:00,
2013-06-25 05:37:00,54.2,53.1,29.67,SE,132,0.0,2.0,96,0.05,,,0.10,16,WeatherCatV1.14B232,2013-06-25 12:37:00,
2013-06-25 05:42:00,54.2,53.1,29.67,SE,131,1.0,1.0,96,0.05,,,0.10,14,WeatherCatV1.14B232,2013-06-25 12:42:00,
2013-06-25 05:47:00,54.4,53.3,29.67,SE,131,0.0,0.0,96,0.05,,,0.11,18,WeatherCatV1.14B232,2013-06-25 12:47:00,
2013-06-25 05:52:00,54.4,53.3,29.67,ESE,114,0.0,4.0,96,0.05,,,0.11,18,WeatherCatV1.14B232,2013-06-25 12:52:00,
2013-06-25 05:57:00,54.4,53.3,29.67,SE,136,0.0,0.0,96,0.04,,,0.11,16,WeatherCatV1.14B232,2013-06-25 12:57:00,
2013-06-25 06:02:00,54.4,53.3,29.66,SE,139,0.0,4.0,96,0.00,,,0.11,14,WeatherCatV1.14B232,2013-06-25 13:02:00,
2013-06-25 06:07:00,54.4,53.3,29.66,SE,136,0.0,0.0,96,0.00,,,0.11,14,WeatherCatV1.14B232,2013-06-25 13:07:00,
2013-06-25 06:12:00,54.4,53.6,29.66,SE,134,0.0,1.0,97,0.00,,,0.11,16,WeatherCatV1.14B232,2013-06-25 13:12:00,
2013-06-25 06:17:00,54.4,53.6,29.66,SE,124,0.0,1.0,97,0.00,,,0.11,19,WeatherCatV1.14B232,2013-06-25 13:17:00,
2013-06-25 06:22:00,54.4,53.6,29.66,ESE,121,0.0,2.0,97,0.00,,,0.11,35,WeatherCatV1.14B232,2013-06-25 13:22:00,
2013-06-25 06:27:00,54.4,53.6,29.66,East,101,0.0,0.0,97,0.00,,,0.11,53,WeatherCatV1.14B232,2013-06-25 13:27:00,
2013-06-25 06:32:00,54.4,53.6,29.66,ESE,111,2.0,5.0,97,0.00,,,0.11,54,WeatherCatV1.14B232,2013-06-25 13:32:00,
2013-06-25 06:37:00,54.4,53.6,29.66,ESE,113,0.0,4.0,97,0.00,,,0.11,60,WeatherCatV1.14B232,2013-06-25 13:37:00,
2013-06-25 06:42:00,54.5,53.7,29.66,ESE,113,0.0,4.0,97,0.00,,,0.11,70,WeatherCatV1.14B232,2013-06-25 13:42:00,
2013-06-25 06:47:00,54.5,53.7,29.65,ESE,113,0.0,1.0,97,0.00,,,0.11,74,WeatherCatV1.14B232,2013-06-25 13:47:00,
2013-06-25 06:52:00,54.5,53.7,29.65,ESE,119,1.0,1.0,97,0.00,,,0.11,79,WeatherCatV1.14B232,2013-06-25 13:52:00,
2013-06-25 06:57:00,54.5,53.7,29.65,ESE,109,0.0,2.0,97,0.00,,,0.11,72,WeatherCatV1.14B232,2013-06-25 13:57:00,
2013-06-25 07:02:00,54.7,53.9,29.65,SE,126,0.0,2.0,97,0.00,,,0.11,70,WeatherCatV1.14B232,2013-06-25 14:02:00,
2013-06-25 07:07:00,54.7,53.9,29.65,SE,126,0.0,0.0,97,0.00,,,0.11,83,WeatherCatV1.14B232,2013-06-25 14:07:00,
2013-06-25 07:12:00,54.8,54.0,29.65,SE,137,0.0,5.0,97,0.00,,,0.11,105,WeatherCatV1.14B232,2013-06-25 14:12:00,
2013-06-25 07:17:00,54.8,54.0,29.65,East,96,0.0,2.0,97,0.00,,,0.11,128,WeatherCatV1.14B232,2013-06-25 14:17:00,
2013-06-25 07:22:00,55.0,54.2,29.65,SE,125,0.0,0.0,97,0.00,,,0.11,230,WeatherCatV1.14B232,2013-06-25 14:22:00,
2013-06-25 07:27:00,55.3,54.5,29.65,ESE,121,0.0,0.0,97,0.00,,,0.11,141,WeatherCatV1.14B232,2013-06-25 14:27:00,
2013-06-25 07:32:00,55.4,54.6,29.65,SE,130,1.0,3.0,97,0.00,,,0.11,169,WeatherCatV1.14B232,2013-06-25 14:32:00,
2013-06-25 07:37:00,55.6,54.8,29.65,East,97,2.0,3.0,97,0.00,,,0.11,200,WeatherCatV1.14B232,2013-06-25 14:37:00,
2013-06-25 07:42:00,55.9,55.1,29.65,ESE,107,1.0,4.0,97,0.00,,,0.11,167,WeatherCatV1.14B232,2013-06-25 14:42:00,
2013-06-25 07:47:00,56.0,55.2,29.66,SE,130,0.0,1.0,97,0.00,,,0.11,169,WeatherCatV1.14B232,2013-06-25 14:47:00,
2013-06-25 07:52:00,56.2,55.4,29.66,ESE,111,0.0,1.0,97,0.00,,,0.11,156,WeatherCatV1.14B232,2013-06-25 14:52:00,
2013-06-25 07:57:00,56.2,55.4,29.66,ESE,119,0.0,2.0,97,0.00,,,0.11,123,WeatherCatV1.14B232,2013-06-25 14:57:00,
2013-06-25 08:02:00,56.3,55.5,29.66,ESE,119,0.0,0.0,97,0.00,,,0.11,109,WeatherCatV1.14B232,2013-06-25 15:02:00,
2013-06-25 08:07:00,56.5,55.7,29.66,SW,227,1.0,2.0,97,0.00,,,0.11,90,WeatherCatV1.14B232,2013-06-25 15:07:00,
2013-06-25 08:12:00,56.6,55.8,29.66,ENE,71,0.0,2.0,97,0.00,,,0.11,65,WeatherCatV1.14B232,2013-06-25 15:12:00,
2013-06-25 08:17:00,56.6,55.8,29.67,SE,127,0.0,0.0,97,0.00,,,0.11,16,WeatherCatV1.14B232,2013-06-25 15:17:00,
2013-06-25 08:22:00,56.6,55.5,29.67,WNW,288,0.0,0.0,96,0.24,,,0.14,39,WeatherCatV1.14B232,2013-06-25 15:22:00,
2013-06-25 08:27:00,56.6,55.5,29.67,NW,306,0.0,1.0,96,0.19,,,0.15,44,WeatherCatV1.14B232,2013-06-25 15:27:00,
2013-06-25 08:32:00,56.6,55.5,29.68,East,95,1.0,3.0,96,0.08,,,0.15,46,WeatherCatV1.14B232,2013-06-25 15:32:00,
2013-06-25 08:37:00,56.6,55.5,29.68,ESE,103,1.0,2.0,96,0.08,,,0.16,62,WeatherCatV1.14B232,2013-06-25 15:37:00,
2013-06-25 08:42:00,56.5,55.4,29.68,SW,222,0.0,1.0,96,0.06,,,0.16,70,WeatherCatV1.14B232,2013-06-25 15:42:00,
2013-06-25 08:47:00,56.5,55.4,29.69,SE,136,0.0,1.0,96,0.04,,,0.16,97,WeatherCatV1.14B232,2013-06-25 15:47:00,
2013-06-25 08:52:00,56.5,55.4,29.69,SE,136,0.0,0.0,96,0.00,,,0.16,151,WeatherCatV1.14B232,2013-06-25 15:52:00,
2013-06-25 08:57:00,56.6,55.5,29.69,SE,136,0.0,0.0,96,0.00,,,0.16,200,WeatherCatV1.14B232,2013-06-25 15:57:00,
2013-06-25 09:02:00,56.7,55.6,29.70,SE,136,0.0,0.0,96,0.00,,,0.16,195,WeatherCatV1.14B232,2013-06-25 16:02:00,
2013-06-25 09:07:00,57.0,56.2,29.70,SE,136,0.0,0.0,97,0.00,,,0.16,207,WeatherCatV1.14B232,2013-06-25 16:07:00,
2013-06-25 09:12:00,57.2,56.4,29.70,SE,130,0.0,1.0,97,0.00,,,0.16,199,WeatherCatV1.14B232,2013-06-25 16:12:00,
2013-06-25 09:17:00,57.5,56.7,29.69,ESE,119,0.0,3.0,97,0.00,,,0.16,272,WeatherCatV1.14B232,2013-06-25 16:17:00,
2013-06-25 09:22:00,57.8,57.0,29.69,ESE,119,0.0,1.0,97,0.00,,,0.16,380,WeatherCatV1.14B232,2013-06-25 16:22:00,
2013-06-25 09:27:00,58.7,57.8,29.69,ESE,115,0.0,1.0,97,0.00,,,0.16,221,WeatherCatV1.14B232,2013-06-25 16:27:00,
2013-06-25 09:32:00,59.3,58.4,29.69,East,88,0.0,3.0,97,0.00,,,0.16,197,WeatherCatV1.14B232,2013-06-25 16:32:00,
2013-06-25 09:37:00,59.5,58.4,29.69,East,88,0.0,0.0,96,0.00,,,0.16,234,WeatherCatV1.14B232,2013-06-25 16:37:00,
2013-06-25 09:42:00,59.3,57.9,29.69,ESE,110,0.0,1.0,95,0.00,,,0.16,257,WeatherCatV1.14B232,2013-06-25 16:42:00,
2013-06-25 09:47:00,59.5,58.1,29.70,ESE,110,0.0,0.0,95,0.00,,,0.16,209,WeatherCatV1.14B232,2013-06-25 16:47:00,
2013-06-25 09:52:00,59.8,58.4,29.70,ESE,110,0.0,1.0,95,0.00,,,0.16,158,WeatherCatV1.14B232,2013-06-25 16:52:00,
2013-06-25 09:57:00,59.8,58.1,29.70,East,101,0.0,0.0,94,0.00,,,0.16,285,WeatherCatV1.14B232,2013-06-25 16:57:00,
2013-06-25 10:02:00,59.9,57.9,29.70,East,101,0.0,0.0,93,0.00,,,0.16,378,WeatherCatV1.14B232,2013-06-25 17:02:00,
2013-06-25 10:07:00,60.4,58.4,29.70,East,101,0.0,0.0,93,0.00,,,0.16,339,WeatherCatV1.14B232,2013-06-25 17:07:00,
2013-06-25 10:12:00,60.7,58.7,29.70,East,101,0.0,1.0,93,0.00,,,0.16,239,WeatherCatV1.14B232,2013-06-25 17:12:00,
2013-06-25 10:17:00,60.5,57.9,29.70,ENE,78,0.0,0.0,91,0.00,,,0.16,251,WeatherCatV1.14B232,2013-06-25 17:17:00,
2013-06-25 10:22:00,60.5,57.9,29.70,East,79,0.0,0.0,91,0.00,,,0.16,253,WeatherCatV1.14B232,2013-06-25 17:22:00,
2013-06-25 10:27:00,60.4,57.5,29.70,SE,126,0.0,0.0,90,0.00,,,0.16,304,WeatherCatV1.14B232,2013-06-25 17:27:00,
2013-06-25 10:32:00,60.7,57.7,29.70,ESE,105,0.0,2.0,90,0.00,,,0.16,383,WeatherCatV1.14B232,2013-06-25 17:32:00,
2013-06-25 10:37:00,61.0,58.0,29.70,ESE,102,0.0,2.0,90,0.00,,,0.16,378,WeatherCatV1.14B232,2013-06-25 17:37:00,
2013-06-25 10:42:00,61.5,58.5,29.70,East,94,3.0,4.0,90,0.00,,,0.16,297,WeatherCatV1.14B232,2013-06-25 17:42:00,
2013-06-25 10:47:00,61.3,57.7,29.70,ESE,109,0.0,0.0,88,0.00,,,0.16,376,WeatherCatV1.14B232,2013-06-25 17:47:00,
2013-06-25 10:52:00,61.3,57.7,29.70,ESE,107,0.0,2.0,88,0.00,,,0.16,417,WeatherCatV1.14B232,2013-06-25 17:52:00,
2013-06-25 10:57:00,62.0,58.1,29.70,ESE,110,0.0,2.0,87,0.00,,,0.16,297,WeatherCatV1.14B232,2013-06-25 17:57:00,
2013-06-25 11:02:00,62.1,58.5,29.70,ESE,110,0.0,1.0,88,0.00,,,0.16,211,WeatherCatV1.14B232,2013-06-25 18:02:00,
2013-06-25 11:07:00,62.3,58.7,29.70,ESE,110,0.0,0.0,88,0.00,,,0.16,258,WeatherCatV1.14B232,2013-06-25 18:07:00,
2013-06-25 11:12:00,62.6,58.7,29.70,East,94,0.0,0.0,87,0.00,,,0.16,264,WeatherCatV1.14B232,2013-06-25 18:12:00,
2013-06-25 11:17:00,63.1,59.2,29.70,East,95,0.0,1.0,87,0.00,,,0.16,418,WeatherCatV1.14B232,2013-06-25 18:17:00,
2013-06-25 11:22:00,63.2,57.9,29.70,East,95,0.0,1.0,83,0.00,,,0.16,313,WeatherCatV1.14B232,2013-06-25 18:22:00,
2013-06-25 11:27:00,62.6,57.7,29.70,East,94,0.0,0.0,84,0.00,,,0.16,341,WeatherCatV1.14B232,2013-06-25 18:27:00,
2013-06-25 11:32:00,62.4,57.5,29.70,East,95,1.0,1.0,84,0.00,,,0.16,355,WeatherCatV1.14B232,2013-06-25 18:32:00,
2013-06-25 11:37:00,62.9,57.7,29.70,East,96,0.0,0.0,83,0.00,,,0.16,374,WeatherCatV1.14B232,2013-06-25 18:37:00,
2013-06-25 11:42:00,62.9,57.7,29.70,East,100,0.0,2.0,83,0.00,,,0.16,476,WeatherCatV1.14B232,2013-06-25 18:42:00,
2013-06-25 11:47:00,62.9,58.3,29.70,ESE,108,0.0,2.0,85,0.00,,,0.16,304,WeatherCatV1.14B232,2013-06-25 18:47:00,
2013-06-25 11:52:00,62.9,58.0,29.70,East,96,1.0,2.0,84,0.00,,,0.16,221,WeatherCatV1.14B232,2013-06-25 18:52:00,
2013-06-25 11:57:00,63.2,57.9,29.70,East,96,0.0,1.0,83,0.00,,,0.16,137,WeatherCatV1.14B232,2013-06-25 18:57:00,
2013-06-25 12:02:00,63.5,58.6,29.70,East,96,0.0,0.0,84,0.00,,,0.16,176,WeatherCatV1.14B232,2013-06-25 19:02:00,
2013-06-25 12:07:00,63.9,58.6,29.70,East,96,0.0,0.0,83,0.00,,,0.16,176,WeatherCatV1.14B232,2013-06-25 19:07:00,
2013-06-25 12:12:00,63.7,57.4,29.70,East,96,0.0,0.0,80,0.00,,,0.16,195,WeatherCatV1.14B232,2013-06-25 19:12:00,
2013-06-25 12:17:00,64.0,58.0,29.71,East,98,0.0,2.0,81,0.00,,,0.16,376,WeatherCatV1.14B232,2013-06-25 19:17:00,
2013-06-25 12:22:00,63.9,57.9,29.71,East,98,0.0,0.0,81,0.00,,,0.16,376,WeatherCatV1.14B232,2013-06-25 19:22:00,
2013-06-25 12:27:00,64.5,58.5,29.71,SSW,197,0.0,3.0,81,0.00,,,0.17,949,WeatherCatV1.14B232,2013-06-25 19:27:00,
2013-06-25 12:32:00,65.2,58.2,29.70,ENE,78,0.0,1.0,78,0.00,,,0.17,735,WeatherCatV1.14B232,2013-06-25 19:32:00,
2013-06-25 12:37:00,66.3,58.1,29.70,ENE,66,1.0,3.0,75,0.00,,,0.17,990,WeatherCatV1.14B232,2013-06-25 19:37:00,
2013-06-25 12:42:00,66.4,57.9,29.70,East,101,0.0,5.0,74,0.00,,,0.17,942,WeatherCatV1.14B232,2013-06-25 19:42:00,
2013-06-25 12:47:00,67.8,58.8,29.70,SE,137,0.0,2.0,73,0.00,,,0.17,947,WeatherCatV1.14B232,2013-06-25 19:47:00,
2013-06-25 12:52:00,66.8,58.2,29.70,SE,127,0.0,2.0,74,0.00,,,0.17,842,WeatherCatV1.14B232,2013-06-25 19:52:00,
2013-06-25 12:57:00,67.6,58.2,29.70,SE,146,0.0,1.0,72,0.00,,,0.17,851,WeatherCatV1.14B232,2013-06-25 19:57:00,
2013-06-25 13:02:00,69.6,58.6,29.70,SE,146,0.0,1.0,68,0.00,,,0.17,1118,WeatherCatV1.14B232,2013-06-25 20:02:00,
2013-06-25 13:07:00,69.8,59.2,29.70,SSE,150,0.0,0.0,69,0.00,,,0.17,1056,WeatherCatV1.14B232,2013-06-25 20:07:00,
2013-06-25 13:12:00,69.9,59.7,29.70,South,173,0.0,1.0,70,0.00,,,0.17,1072,WeatherCatV1.14B232,2013-06-25 20:12:00,
2013-06-25 13:17:00,69.3,56.6,29.70,ENE,61,0.0,2.0,64,0.00,,,0.17,1034,WeatherCatV1.14B232,2013-06-25 20:17:00,
2013-06-25 13:22:00,70.1,58.2,29.70,East,98,4.0,4.0,66,0.00,,,0.17,1088,WeatherCatV1.14B232,2013-06-25 20:22:00,
2013-06-25 13:27:00,68.8,56.5,29.70,ESE,111,1.0,1.0,65,0.00,,,0.17,218,WeatherCatV1.14B232,2013-06-25 20:27:00,
2013-06-25 13:32:00,68.3,57.7,29.70,ENE,57,0.0,2.0,69,0.00,,,0.17,299,WeatherCatV1.14B232,2013-06-25 20:32:00,
2013-06-25 13:37:00,69.1,57.7,29.70,ESE,110,2.0,4.0,67,0.00,,,0.17,877,WeatherCatV1.14B232,2013-06-25 20:37:00,
2013-06-25 13:42:00,69.3,57.9,29.70,NW,319,0.0,0.0,67,0.00,,,0.17,218,WeatherCatV1.14B232,2013-06-25 20:42:00,
2013-06-25 13:47:00,68.9,56.6,29.70,NW,319,0.0,2.0,65,0.00,,,0.17,149,WeatherCatV1.14B232,2013-06-25 20:47:00,
2013-06-25 13:52:00,67.8,56.8,29.70,West,265,0.0,0.0,68,0.00,,,0.17,197,WeatherCatV1.14B232,2013-06-25 20:52:00,
2013-06-25 13:57:00,67.4,55.6,29.70,West,265,0.0,0.0,66,0.00,,,0.17,121,WeatherCatV1.14B232,2013-06-25 20:57:00,
2013-06-25 14:02:00,67.4,56.5,29.70,West,265,0.0,0.0,68,0.00,,,0.17,107,WeatherCatV1.14B232,2013-06-25 21:02:00,
2013-06-25 14:07:00,67.8,57.6,29.70,West,265,0.0,0.0,70,0.00,,,0.17,69,WeatherCatV1.14B232,2013-06-25 21:07:00,
2013-06-25 14:12:00,68.1,57.9,29.70,West,265,0.0,0.0,70,0.00,,,0.17,130,WeatherCatV1.14B232,2013-06-25 21:12:00,
2013-06-25 14:17:00,67.6,56.7,29.70,West,265,0.0,2.0,68,0.00,,,0.17,740,WeatherCatV1.14B232,2013-06-25 21:17:00,
2013-06-25 14:22:00,68.3,56.9,29.70,SSW,213,1.0,1.0,67,0.00,,,0.17,207,WeatherCatV1.14B232,2013-06-25 21:22:00,
2013-06-25 14:27:00,68.4,57.4,29.70,SSW,205,0.0,0.0,68,0.00,,,0.17,148,WeatherCatV1.14B232,2013-06-25 21:27:00,
2013-06-25 14:32:00,68.6,57.2,29.71,ESE,121,2.0,2.0,67,0.00,,,0.17,67,WeatherCatV1.14B232,2013-06-25 21:32:00,
2013-06-25 14:37:00,67.9,57.7,29.71,East,83,1.0,5.0,70,0.71,,,0.19,81,WeatherCatV1.14B232,2013-06-25 21:37:00,
2013-06-25 14:42:00,66.9,56.4,29.71,ENE,76,0.0,0.0,69,0.10,,,0.19,155,WeatherCatV1.14B232,2013-06-25 21:42:00,
2013-06-25 14:47:00,62.6,56.0,29.72,ENE,76,0.0,1.0,79,0.10,,,0.20,1034,WeatherCatV1.14B232,2013-06-25 21:47:00,
2013-06-25 14:52:00,61.5,55.6,29.72,ENE,76,0.0,1.0,81,0.06,,,0.20,197,WeatherCatV1.14B232,2013-06-25 21:52:00,
2013-06-25 14:57:00,61.6,56.7,29.72,ENE,76,0.0,0.0,84,0.04,,,0.20,139,WeatherCatV1.14B232,2013-06-25 21:57:00,
2013-06-25 15:02:00,61.0,55.8,29.72,ENE,76,0.0,1.0,83,0.00,,,0.20,121,WeatherCatV1.14B232,2013-06-25 22:02:00,
2013-06-25 15:07:00,61.0,57.4,29.72,ENE,76,0.0,0.0,88,0.00,,,0.20,163,WeatherCatV1.14B232,2013-06-25 22:07:00,
2013-06-25 15:12:00,60.5,57.2,29.72,ENE,76,0.0,0.0,89,0.00,,,0.20,211,WeatherCatV1.14B232,2013-06-25 22:12:00,
2013-06-25 15:17:00,60.5,57.5,29.72,ENE,76,0.0,0.0,90,0.00,,,0.20,299,WeatherCatV1.14B232,2013-06-25 22:17:00,
2013-06-25 15:22:00,61.3,59.0,29.72,ENE,76,0.0,0.0,92,0.00,,,0.20,264,WeatherCatV1.14B232,2013-06-25 22:22:00,
2013-06-25 15:27:00,61.8,59.4,29.72,ENE,76,0.0,0.0,92,0.00,,,0.20,218,WeatherCatV1.14B232,2013-06-25 22:27:00,
2013-06-25 15:32:00,62.3,59.3,29.72,ENE,76,0.0,0.0,90,0.00,,,0.20,877,WeatherCatV1.14B232,2013-06-25 22:32:00,
2013-06-25 15:37:00,62.9,59.3,29.72,ESE,103,0.0,1.0,88,0.00,,,0.20,789,WeatherCatV1.14B232,2013-06-25 22:37:00,
2013-06-25 15:42:00,63.7,59.1,29.72,NNW,334,0.0,1.0,85,0.00,,,0.20,749,WeatherCatV1.14B232,2013-06-25 22:42:00,
2013-06-25 15:47:00,65.0,59.7,29.71,NE,55,0.0,1.0,83,0.00,,,0.20,738,WeatherCatV1.14B232,2013-06-25 22:47:00,
2013-06-25 15:52:00,65.0,59.7,29.71,ENE,62,2.0,2.0,83,0.00,,,0.20,729,WeatherCatV1.14B232,2013-06-25 22:52:00,
2013-06-25 15:57:00,65.6,59.9,29.71,ESE,105,0.0,4.0,82,0.00,,,0.20,721,WeatherCatV1.14B232,2013-06-25 22:57:00,
2013-06-25 16:02:00,66.6,60.2,29.70,SE,132,1.0,3.0,80,0.00,,,0.20,714,WeatherCatV1.14B232,2013-06-25 23:02:00,
2013-06-25 16:07:00,67.6,59.8,29.70,NE,49,1.0,2.0,76,0.00,,,0.20,735,WeatherCatV1.14B232,2013-06-25 23:07:00,
2013-06-25 16:12:00,68.1,59.9,29.70,ENE,71,0.0,3.0,75,0.00,,,0.20,712,WeatherCatV1.14B232,2013-06-25 23:12:00,
2013-06-25 16:17:00,67.9,59.3,29.70,East,89,0.0,3.0,74,0.00,,,0.20,751,WeatherCatV1.14B232,2013-06-25 23:17:00,
2013-06-25 16:22:00,67.8,59.2,29.70,SE,135,1.0,3.0,74,0.00,,,0.20,125,WeatherCatV1.14B232,2013-06-25 23:22:00,
2013-06-25 16:27:00,66.9,56.4,29.70,East,90,0.0,2.0,69,0.00,,,0.20,118,WeatherCatV1.14B232,2013-06-25 23:27:00,
2013-06-25 16:32:00,66.4,55.9,29.70,ENE,73,0.0,0.0,69,0.00,,,0.20,84,WeatherCatV1.14B232,2013-06-25 23:32:00,
2013-06-25 16:37:00,66.4,57.1,29.70,ENE,73,0.0,0.0,72,0.00,,,0.20,72,WeatherCatV1.14B232,2013-06-25 23:37:00,
2013-06-25 16:42:00,66.1,57.9,29.70,ENE,73,0.0,0.0,75,0.00,,,0.20,70,WeatherCatV1.14B232,2013-06-25 23:42:00,
2013-06-25 16:47:00,66.0,59.3,29.70,ENE,73,0.0,0.0,79,0.00,,,0.20,74,WeatherCatV1.14B232,2013-06-25 23:47:00,
2013-06-25 16:52:00,65.8,59.1,29.70,ENE,73,0.0,0.0,79,0.00,,,0.21,74,WeatherCatV1.14B232,2013-06-25 23:52:00,
2013-06-25 16:57:00,65.8,59.5,29.70,ENE,73,0.0,0.0,80,0.00,,,0.21,83,WeatherCatV1.14B232,2013-06-25 23:57:00,
2013-06-25 17:02:00,66.0,59.6,29.70,ENE,73,0.0,0.0,80,0.00,,,0.21,90,WeatherCatV1.14B232,2013-06-26 00:02:00,
2013-06-25 17:07:00,65.8,60.1,29.70,ENE,73,0.0,1.0,82,0.05,,,0.22,84,WeatherCatV1.14B232,2013-06-26 00:07:00,
2013-06-25 17:12:00,65.6,60.3,29.70,ENE,73,0.0,0.0,83,0.05,,,0.22,90,WeatherCatV1.14B232,2013-06-26 00:12:00,
2013-06-25 17:17:00,65.5,60.9,29.69,ENE,73,0.0,0.0,85,0.04,,,0.22,105,WeatherCatV1.14B232,2013-06-26 00:17:00,
2013-06-25 17:22:00,65.3,61.3,29.69,ENE,73,0.0,0.0,87,0.00,,,0.22,167,WeatherCatV1.14B232,2013-06-26 00:22:00,
2013-06-25 17:27:00,65.2,60.9,29.69,ENE,73,0.0,1.0,86,0.00,,,0.22,197,WeatherCatV1.14B232,2013-06-26 00:27:00,
2013-06-25 17:32:00,65.0,60.7,29.70,ENE,67,0.0,2.0,86,0.00,,,0.22,329,WeatherCatV1.14B232,2013-06-26 00:32:00,
2013-06-25 17:37:00,64.8,59.5,29.70,ENE,67,0.0,2.0,83,0.00,,,0.22,204,WeatherCatV1.14B232,2013-06-26 00:37:00,
2013-06-25 17:42:00,65.0,60.0,29.70,ENE,67,0.0,0.0,84,0.00,,,0.22,167,WeatherCatV1.14B232,2013-06-26 00:42:00,
2013-06-25 17:47:00,65.5,60.9,29.70,ENE,67,0.0,2.0,85,0.00,,,0.22,169,WeatherCatV1.14B232,2013-06-26 00:47:00,
2013-06-25 17:52:00,65.6,61.0,29.70,ENE,67,0.0,0.0,85,0.00,,,0.22,153,WeatherCatV1.14B232,2013-06-26 00:52:00,
2013-06-25 17:57:00,66.0,61.7,29.70,ENE,59,1.0,1.0,86,0.00,,,0.22,128,WeatherCatV1.14B232,2013-06-26 00:57:00,
2013-06-25 18:02:00,66.3,62.3,29.70,NE,49,0.0,0.0,87,0.00,,,0.22,116,WeatherCatV1.14B232,2013-06-26 01:02:00,
2013-06-25 18:07:00,66.4,62.4,29.70,NE,49,0.0,0.0,87,0.00,,,0.22,125,WeatherCatV1.14B232,2013-06-26 01:07:00,
2013-06-25 18:12:00,66.4,62.4,29.70,NE,49,0.0,0.0,87,0.00,,,0.22,120,WeatherCatV1.14B232,2013-06-26 01:12:00,
2013-06-25 18:17:00,66.6,62.3,29.70,NE,49,0.0,0.0,86,0.00,,,0.22,107,WeatherCatV1.14B232,2013-06-26 01:17:00,
2013-06-25 18:22:00,66.6,62.3,29.70,NE,49,0.0,0.0,86,0.00,,,0.22,109,WeatherCatV1.14B232,2013-06-26 01:22:00,
2013-06-25 18:27:00,66.8,62.5,29.70,NE,49,0.0,0.0,86,0.00,,,0.22,113,WeatherCatV1.14B232,2013-06-26 01:27:00,
2013-06-25 18:32:00,66.8,62.5,29.70,NE,49,0.0,0.0,86,0.00,,,0.22,102,WeatherCatV1.14B232,2013-06-26 01:32:00,
2013-06-25 18:37:00,66.8,62.5,29.70,NE,49,3.0,3.0,86,0.00,,,0.22,33,WeatherCatV1.14B232,2013-06-26 01:37:00,
2013-06-25 18:42:00,66.1,59.7,29.70,SW,219,2.0,11.0,80,0.00,,,0.22,5,WeatherCatV1.14B232,2013-06-26 01:42:00,
2013-06-25 18:47:00,65.2,57.8,29.73,East,94,1.0,5.0,77,0.00,,,0.22,5,WeatherCatV1.14B232,2013-06-26 01:47:00,
2013-06-25 18:52:00,64.0,57.3,29.73,SW,236,0.0,4.0,79,1.02,,,0.25,7,WeatherCatV1.14B232,2013-06-26 01:52:00,
2013-06-25 18:57:00,63.1,57.5,29.73,WSW,239,3.0,4.0,82,0.52,,,0.29,16,WeatherCatV1.14B232,2013-06-26 01:57:00,
2013-06-25 19:02:00,62.3,57.4,29.74,South,178,0.0,1.0,84,0.26,,,0.31,25,WeatherCatV1.14B232,2013-06-26 02:02:00,
2013-06-25 19:07:00,61.6,56.7,29.74,ESE,118,0.0,2.0,84,0.15,,,0.32,26,WeatherCatV1.14B232,2013-06-26 02:07:00,
2013-06-25 19:12:00,61.0,56.8,29.74,ESE,122,0.0,1.0,86,0.07,,,0.32,35,WeatherCatV1.14B232,2013-06-26 02:12:00,
2013-06-25 19:17:00,60.5,56.6,29.75,ESE,122,0.0,1.0,87,0.07,,,0.33,46,WeatherCatV1.14B232,2013-06-26 02:17:00,
2013-06-25 19:22:00,60.2,56.9,29.75,ESE,122,0.0,0.0,89,0.06,,,0.33,70,WeatherCatV1.14B232,2013-06-26 02:22:00,
2013-06-25 19:27:00,60.1,57.2,29.75,ESE,122,0.0,0.0,90,0.04,,,0.33,74,WeatherCatV1.14B232,2013-06-26 02:27:00,
2013-06-25 19:32:00,60.1,57.2,29.76,ESE,122,0.0,0.0,90,0.00,,,0.33,40,WeatherCatV1.14B232,2013-06-26 02:32:00,
2013-06-25 19:37:00,59.9,57.3,29.76,ESE,123,0.0,1.0,91,0.00,,,0.33,26,WeatherCatV1.14B232,2013-06-26 02:37:00,
2013-06-25 19:42:00,59.8,57.2,29.76,ESE,123,0.0,0.0,91,0.00,,,0.33,26,WeatherCatV1.14B232,2013-06-26 02:42:00,
2013-06-25 19:47:00,59.6,57.3,29.75,ESE,123,0.0,1.0,92,0.00,,,0.33,28,WeatherCatV1.14B232,2013-06-26 02:47:00,
2013-06-25 19:52:00,59.6,57.3,29.75,ESE,117,0.0,1.0,92,0.00,,,0.33,26,WeatherCatV1.14B232,2013-06-26 02:52:00,
2013-06-25 19:57:00,59.5,57.2,29.75,ESE,117,0.0,0.0,92,0.00,,,0.33,19,WeatherCatV1.14B232,2013-06-26 02:57:00,
2013-06-25 20:02:00,59.3,57.3,29.76,ESE,117,0.0,0.0,93,0.00,,,0.33,18,WeatherCatV1.14B232,2013-06-26 03:02:00,
2013-06-25 20:07:00,59.3,57.3,29.76,ESE,117,0.0,0.0,93,0.00,,,0.33,19,WeatherCatV1.14B232,2013-06-26 03:07:00,
2013-06-25 20:12:00,59.3,57.3,29.76,ESE,117,0.0,1.0,93,0.00,,,0.33,14,WeatherCatV1.14B232,2013-06-26 03:12:00,
2013-06-25 20:17:00,59.2,57.2,29.76,ESE,119,0.0,0.0,93,0.00,,,0.33,11,WeatherCatV1.14B232,2013-06-26 03:17:00,
2013-06-25 20:22:00,59.2,57.2,29.76,ESE,119,0.0,0.0,93,0.00,,,0.33,16,WeatherCatV1.14B232,2013-06-26 03:22:00,
2013-06-25 20:27:00,59.2,57.2,29.76,ESE,119,0.0,0.0,93,0.00,,,0.33,16,WeatherCatV1.14B232,2013-06-26 03:27:00,
2013-06-25 20:32:00,59.2,57.5,29.77,ESE,119,0.0,0.0,94,0.00,,,0.33,11,WeatherCatV1.14B232,2013-06-26 03:32:00,
2013-06-25 20:37:00,59.0,57.3,29.77,ESE,119,0.0,0.0,94,0.00,,,0.33,0,WeatherCatV1.14B232,2013-06-26 03:37:00,
2013-06-25 20:42:00,59.0,57.3,29.77,ESE,119,0.0,0.0,94,0.00,,,0.33,0,WeatherCatV1.14B232,2013-06-26 03:42:00,
2013-06-25 20:47:00,58.9,57.2,29.78,ESE,119,0.0,1.0,94,0.00,,,0.34,0,WeatherCatV1.14B232,2013-06-26 03:47:00,
2013-06-25 20:52:00,58.9,57.2,29.78,ESE,119,0.0,0.0,94,0.15,,,0.35,0,WeatherCatV1.14B232,2013-06-26 03:52:00,
2013-06-25 20:57:00,58.7,57.0,29.78,ESE,119,0.0,0.0,94,0.11,,,0.36,0,WeatherCatV1.14B232,2013-06-26 03:57:00,
2013-06-25 21:01:00,58.7,57.0,29.78,ESE,119,0.0,0.0,94,0.08,,,0.36,0,WeatherCatV1.14B232,2013-06-26 04:01:00,
2013-06-25 21:06:00,58.7,57.0,29.78,ESE,119,0.0,0.0,94,0.07,,,0.37,0,WeatherCatV1.14B232,2013-06-26 04:06:00,
2013-06-25 21:11:00,58.6,56.9,29.78,ESE,119,0.0,0.0,94,0.07,,,0.37,0,WeatherCatV1.14B232,2013-06-26 04:11:00,
2013-06-25 21:16:00,58.6,56.9,29.79,ESE,118,0.0,3.0,94,0.04,,,0.37,0,WeatherCatV1.14B232,2013-06-26 04:16:00,
2013-06-25 21:21:00,58.4,56.7,29.79,ESE,118,0.0,0.0,94,0.00,,,0.38,0,WeatherCatV1.14B232,2013-06-26 04:21:00,
2013-06-25 21:26:00,58.4,56.7,29.79,ESE,119,0.0,0.0,94,0.11,,,0.39,0,WeatherCatV1.14B232,2013-06-26 04:26:00,
2013-06-25 21:31:00,58.3,56.6,29.81,SE,125,0.0,1.0,94,0.11,,,0.39,0,WeatherCatV1.14B232,2013-06-26 04:31:00,
2013-06-25 21:36:00,58.1,56.4,29.81,SE,125,0.0,1.0,94,0.06,,,0.39,0,WeatherCatV1.14B232,2013-06-26 04:36:00,
2013-06-25 21:41:00,58.1,56.4,29.81,SE,124,0.0,0.0,94,0.04,,,0.39,0,WeatherCatV1.14B232,2013-06-26 04:41:00,
2013-06-25 21:46:00,58.0,56.3,29.81,SE,124,2.0,2.0,94,0.00,,,0.39,0,WeatherCatV1.14B232,2013-06-26 04:46:00,
2013-06-25 21:51:00,57.8,56.1,29.81,SE,124,0.0,0.0,94,0.00,,,0.39,0,WeatherCatV1.14B232,2013-06-26 04:51:00,
2013-06-25 21:56:00,57.6,55.9,29.81,SE,124,0.0,2.0,94,0.00,,,0.40,0,WeatherCatV1.14B232,2013-06-26 04:56:00,
2013-06-25 22:01:00,57.6,55.9,29.81,ESE,115,1.0,5.0,94,0.00,,,0.40,0,WeatherCatV1.14B232,2013-06-26 05:01:00,
2013-06-25 22:06:00,57.5,55.8,29.81,SE,125,2.0,4.0,94,0.00,,,0.40,0,WeatherCatV1.14B232,2013-06-26 05:06:00,
2013-06-25 22:11:00,57.3,55.9,29.81,SE,125,0.0,1.0,95,0.00,,,0.40,0,WeatherCatV1.14B232,2013-06-26 05:11:00,
2013-06-25 22:16:00,57.3,55.9,29.82,SE,125,0.0,2.0,95,0.00,,,0.40,0,WeatherCatV1.14B232,2013-06-26 05:16:00,
2013-06-25 22:21:00,57.2,55.8,29.82,SE,130,2.0,2.0,95,0.00,,,0.40,0,WeatherCatV1.14B232,2013-06-26 05:21:00,
2013-06-25 22:26:00,57.2,55.8,29.82,ESE,119,0.0,1.0,95,0.00,,,0.40,0,WeatherCatV1.14B232,2013-06-26 05:26:00,
2013-06-25 22:31:00,57.2,55.8,29.83,ESE,119,0.0,2.0,95,0.00,,,0.40,0,WeatherCatV1.14B232,2013-06-26 05:31:00,
2013-06-25 22:36:00,57.0,55.6,29.83,SE,129,0.0,2.0,95,0.00,,,0.41,0,WeatherCatV1.14B232,2013-06-26 05:36:00,
2013-06-25 22:41:00,57.0,55.6,29.83,ESE,123,0.0,4.0,95,0.00,,,0.41,0,WeatherCatV1.14B232,2013-06-26 05:41:00,
2013-06-25 22:46:00,57.0,55.6,29.83,ESE,120,0.0,3.0,95,0.00,,,0.41,0,WeatherCatV1.14B232,2013-06-26 05:46:00,
2013-06-25 22:51:00,57.0,55.6,29.83,SE,125,0.0,2.0,95,0.00,,,0.41,0,WeatherCatV1.14B232,2013-06-26 05:51:00,
2013-06-25 22:56:00,57.0,55.6,29.83,SE,125,0.0,0.0,95,0.00,,,0.41,0,WeatherCatV1.14B232,2013-06-26 05:56:00,
2013-06-25 23:01:00,56.9,55.5,29.83,SE,125,0.0,2.0,95,0.00,,,0.41,0,WeatherCatV1.14B232,2013-06-26 06:01:00,
2013-06-25 23:06:00,56.9,55.5,29.83,SE,125,0.0,0.0,95,0.00,,,0.41,0,WeatherCatV1.14B232,2013-06-26 06:06:00,
2013-06-25 23:11:00,56.9,55.5,29.83,SE,125,0.0,0.0,95,0.00,,,0.41,0,WeatherCatV1.14B232,2013-06-26 06:11:00,
2013-06-25 23:16:00,56.9,55.8,29.83,SE,128,2.0,2.0,96,0.00,,,0.41,0,WeatherCatV1.14B232,2013-06-26 06:16:00,
2013-06-25 23:21:00,56.7,55.6,29.83,ESE,123,0.0,3.0,96,0.00,,,0.41,0,WeatherCatV1.14B232,2013-06-26 06:21:00,
2013-06-25 23:26:00,56.7,55.6,29.83,ESE,123,0.0,1.0,96,0.00,,,0.41,0,WeatherCatV1.14B232,2013-06-26 06:26:00,
2013-06-25 23:31:00,56.7,55.6,29.83,ESE,123,2.0,3.0,96,0.00,,,0.41,0,WeatherCatV1.14B232,2013-06-26 06:31:00,
2013-06-25 23:36:00,56.6,55.5,29.83,ESE,123,1.0,3.0,96,0.00,,,0.41,0,WeatherCatV1.14B232,2013-06-26 06:36:00,
2013-06-25 23:41:00,56.6,55.5,29.83,ESE,123,0.0,0.0,96,0.00,,,0.41,0,WeatherCatV1.14B232,2013-06-26 06:41:00,
2013-06-25 23:46:00,56.6,55.5,29.83,ESE,123,0.0,0.0,96,0.00,,,0.41,0,WeatherCatV1.14B232,2013-06-26 06:46:00,
2013-06-25 23:51:00,56.5,55.4,29.83,ESE,123,0.0,0.0,96,0.00,,,0.41,0,WeatherCatV1.14B232,2013-06-26 06:51:00,
2013-06-25 23:56:00,56.5,55.4,29.83,ESE,123,0.0,0.0,96,0.00,,,0.41,0,WeatherCatV1.14B232,2013-06-26 06:56:00,